Location: Claremont
(35.7250°N, 81.1500°W)
Time: 17:20:59
(UTC-05:00)

Envisat - Visible Passes

Search period start: 20 November 2019 00:00
Search period end: 30 November 2019 00:00
Orbit: 764 x 766 km, 98.1° (Epoch: 20 November)

Date Brightness Start Highest point End Pass type
(mag) Time Alt. Az. Time Alt. Az. Time Alt. Az.
20 Nov 2.9 18:18:30 10° SSE 18:23:32 71° ENE 18:28:36 10° N visible
20 Nov 6.2 20:01:44 10° WSW 20:02:59 11° W 20:04:15 10° WNW visible
21 Nov 5.2 06:30:47 10° NE 06:35:15 30° E 06:39:41 10° SSE visible
21 Nov 3.7 17:42:34 10° SE 17:46:57 30° ENE 17:51:21 10° N visible
21 Nov 5.1 19:21:40 10° SSW 19:25:54 27° W 19:30:11 10° NW visible
22 Nov 6.2 05:56:00 10° ENE 05:58:11 13° E 06:00:22 10° ESE visible
22 Nov 3.4 18:43:59 10° S 18:49:00 64° WSW 18:54:04 10° NNW visible
23 Nov 3.1 18:07:22 10° SSE 18:12:18 54° ENE 18:17:15 10° N visible
23 Nov 5.9 19:48:52 10° SW 19:51:36 15° W 19:54:21 10° WNW visible
24 Nov 5.7 06:19:51 10° NE 06:23:54 24° E 06:27:56 10° SSE visible
24 Nov 4.6 19:10:00 10° SSW 19:14:34 34° W 19:19:11 10° NNW visible
25 Nov 3.0 18:32:40 10° S 18:37:44 82° WSW 18:42:50 10° NNW visible
26 Nov 3.3 17:56:20 10° SE 18:01:04 42° ENE 18:05:51 10° N visible
26 Nov 5.6 19:36:42 10° SW 19:40:13 19° W 19:43:47 10° NW visible
27 Nov 5.9 06:09:04 10° NE 06:12:33 18° E 06:16:01 10° SE visible
27 Nov 4.1 18:58:26 10° S 19:03:16 44° W 19:08:07 10° NNW visible
28 Nov 2.9 18:21:25 10° SSE 18:26:29 78° ENE 18:31:33 10° N visible
29 Nov 5.0 06:33:37 10° NNE 06:38:13 33° E 06:42:46 10° SSE visible
29 Nov 3.6 17:45:22 10° SE 17:49:53 33° ENE 17:54:23 10° N visible
29 Nov 5.2 19:24:48 10° SSW 19:28:52 24° W 19:32:59 10° NW visible
